Location: *
(50.2903°S, 172.5375°W)
Time: 18:06:28
(UTC+00:00)

Cosmos 1602 Rocket - Pass Details

Date: 17 November 2019
Orbit: 605 x 632 km, 82.5° (Epoch: 08 December)

Event Time Altitude Azimuth Distance (km) Brightness Sun altitude
Rises 12:45:31 0° 193° (SSW) 2,922 7.9 -17.9°
Reaches altitude 10° 12:47:47 10° 195° (SSW) 2,005 6.9 -17.8°
Maximum altitude 12:52:11 66° 276° (W) 677 3.6 -17.5°
Enters shadow 12:53:56 35° 347° (NNW) 1,006 4.1 -17.4°
